Regional Weather Roundup
Issued by NWS Sioux Falls, SD

Home | Current Version | Previous Version | Text Only | Print | Product List | Glossary On
Versions: 1 2 3 4 5 6 7 8 9 10 11 12 13 14 15 16 17 18 19 20 21 22 23 24 25 26 27 28 29 30 31 32 33 34 35 36 37 38 39 40 41 42 43 44 45 46 47 48 49 50
000
ASUS43 KFSD 160002
RWRFSD

WEATHER ROUNDUP FOR SE SOUTH DAKOTA/SW MINNESOTA/NW IOWA
NATIONAL WEATHER SERVICE SIOUX FALLS SD
700 PM CDT TUE APR 15 2014

NOTE: "FAIR" INDICATES FEW OR NO CLOUDS BELOW 12,000 FEET WITH NO
SIGNIFICANT WEATHER AND OR OBSTRUCTIONS TO VISIBILITY.


SDZ038>040-050-052>070-160100-
SOUTHEAST SOUTH DAKOTA

CITY           SKY/WX    TMP DP  RH WIND       PRES   REMARKS
CHAMBERLAIN      N/A     58  27  30 SE21G31   29.60F
6HR MIN TEMP:  48; 6HR MAX TEMP:  61;

HURON          PTSUNNY   51  24  34 SE18G25   29.72F
6HR MIN TEMP:  41; 6HR MAX TEMP:  51;

MITCHELL       MOSUNNY   53  29  39 S24G33    29.73F
6HR MIN TEMP:  43; 6HR MAX TEMP:  54;

SIOUX FALLS    PTSUNNY   47  22  37 SE21G28   29.84F
6HR MIN TEMP:  39; 6HR MAX TEMP:  48;

WINNER         FAIR      66  25  21 S7        29.58F
YANKTON        SUNNY     52  28  40 SE21G26   29.80F
$$

MNZ071-072-080-081-089-090-097-098-160100-
SOUTHWEST MINNESOTA

CITY           SKY/WX    TMP DP  RH WIND       PRES   REMARKS
FAIRMONT       MOSUNNY   37  16  41 S14       30.01S
JACKSON        CLOUDY    39  19  45 SE14      29.98R
LUVERNE        MOSUNNY   45  23  42 S15G23    29.89F
MARSHALL       MOSUNNY   43  16  33 SE15      29.92S
6HR MIN TEMP:  34; 6HR MAX TEMP:  45;

MONTEVIDEO     PTSUNNY   37  12  35 SE15      29.96F
PIPESTONE      MOSUNNY   43  19  39 S16G22    29.87F
REDWOOD FALLS  CLOUDY    38  11  32 E12       29.98F
TRACY          MOSUNNY   42  17  36 S14G20    29.94S
WINDOM         SUNNY     39  18  41 SE12      29.96S
WORTHINGTON    MOSUNNY   41  19  42 SE16G22   29.94S
$$

IAZ001>003-012>014-020>022-031-032-NEZ013-014-SDZ071-160100-
NORTHWEST IOWA

CITY           SKY/WX    TMP DP  RH WIND       PRES   REMARKS
CHEROKEE       MOSUNNY   45  26  47 S17G23    29.93F
DENISON        MOSUNNY   46  25  42 S15G24    29.93F
ESTHERVILLE    PTSUNNY   39  23  52 S18       29.97F
SHELDON        CLOUDY    43  23  45 S21       29.89F
SIOUX CITY     MOSUNNY   51  26  37 S21       29.88F
6HR MIN TEMP:  40; 6HR MAX TEMP:  52;

SPENCER        MOSUNNY   42  26  53 SE16      29.95F
6HR MIN TEMP:  33; 6HR MAX TEMP:  43;

STORM LAKE     PTSUNNY   43  25  49 S17G23    29.95S
$$

ABBREVIATIONS USED IN REMARKS
   TC - TEMPERATURE IN CELSIUS
  WCI - WIND CHILL INDEX
   HX - HEAT INDEX
  VSB - VISIBILITY




USA.gov is the U.S. government's official web portal to all federal, state and local government web resources and services.